TimeMST,TemperatureF,Dew PointF,Humidity,Sea Level PressureIn,VisibilityMPH,Wind Direction,Wind SpeedMPH,Gust SpeedMPH,PrecipitationIn,Events,Conditions,WindDirDegrees,DateUTC
12:53 AM,17.1,6.1,62,29.94,10.0,SW,10.4,-,N/A,,Clear,220,2012-12-19 07:53:00
1:53 AM,17.1,6.1,62,29.94,10.0,SW,11.5,-,N/A,,Clear,230,2012-12-19 08:53:00
2:53 AM,17.1,5.0,59,29.96,10.0,West,11.5,-,N/A,,Clear,260,2012-12-19 09:53:00
3:53 AM,16.0,3.9,59,29.99,10.0,WSW,4.6,-,N/A,,Clear,240,2012-12-19 10:53:00
4:53 AM,18.0,3.9,54,30.00,10.0,SW,10.4,-,N/A,,Partly Cloudy,230,2012-12-19 11:53:00
5:53 AM,17.1,3.0,54,30.03,10.0,SW,10.4,-,N/A,,Clear,230,2012-12-19 12:53:00
6:53 AM,15.1,3.0,59,30.06,10.0,SW,9.2,-,N/A,,Clear,220,2012-12-19 13:53:00
7:53 AM,15.1,1.9,56,30.09,10.0,SW,15.0,-,N/A,,Partly Cloudy,230,2012-12-19 14:53:00
8:53 AM,15.1,1.0,54,30.12,10.0,WSW,12.7,-,N/A,,Clear,240,2012-12-19 15:53:00
9:53 AM,18.0,1.9,50,30.13,10.0,SW,13.8,-,N/A,,Clear,220,2012-12-19 16:53:00
10:53 AM,23.0,3.0,42,30.12,10.0,SW,9.2,-,N/A,,Partly Cloudy,230,2012-12-19 17:53:00
11:53 AM,26.1,3.9,39,30.12,10.0,SW,9.2,-,N/A,,Partly Cloudy,230,2012-12-19 18:53:00
12:53 PM,32.0,3.9,31,30.10,10.0,West,21.9,28.8,N/A,,Partly Cloudy,280,2012-12-19 19:53:00
1:53 PM,30.9,1.0,28,30.10,10.0,WNW,23.0,29.9,N/A,,Partly Cloudy,290,2012-12-19 20:53:00
2:53 PM,30.0,-0.0,28,30.11,10.0,West,25.3,32.2,N/A,,Partly Cloudy,280,2012-12-19 21:53:00
3:53 PM,28.9,1.0,30,30.12,10.0,WSW,12.7,-,N/A,,Clear,250,2012-12-19 22:53:00
4:53 PM,26.1,1.9,35,30.13,10.0,WSW,10.4,-,N/A,,Clear,240,2012-12-19 23:53:00
5:53 PM,23.0,1.9,40,30.15,10.0,WSW,10.4,-,N/A,,Clear,240,2012-12-20 00:53:00
6:53 PM,21.2,1.4,42,30.01,10.0,WSW,10.4,-,N/A,,Clear,240,2012-12-20 01:53:00
7:53 PM,19.9,1.9,46,30.17,10.0,WSW,13.8,-,N/A,,Clear,240,2012-12-20 02:53:00
8:53 PM,19.0,3.0,50,30.17,10.0,SW,9.2,-,N/A,,Clear,230,2012-12-20 03:53:00
9:53 PM,18.0,1.9,50,30.16,10.0,SW,8.1,-,N/A,,Clear,220,2012-12-20 04:53:00
10:53 PM,19.0,1.9,47,30.15,10.0,WSW,10.4,-,N/A,,Clear,240,2012-12-20 05:53:00
11:53 PM,21.0,1.0,42,30.14,10.0,WSW,13.8,-,N/A,,Clear,240,2012-12-20 06:53:00